PI1GDA-1 Weather Reports


time (UTC)temp
F
wind
direction
speed
knots
gust
knots
rain 1hr
in
rain 24hr
in
rain mn
in
humidity
%
barometer
mb
20260506202834 54 0 2.6 16.5 0.00 0.00 0.00 74 1012.9
20260506201832 54 0 2.6 16.5 0.00 0.00 0.00 74 1012.9
20260506200832 54 45 2.6 16.5 0.00 0.00 0.00 74 1012.7
20260506195830 54 45 3.5 16.5 0.00 0.00 0.00 74 1012.7
20260506194830 55 45 4.3 16.5 0.00 0.00 0.00 73 1012.6
20260506193830 55 45 3.5 16.5 0.00 0.00 0.00 72 1012.6
20260506192829 55 22 2.6 16.5 0.00 0.00 0.00 70 1012.4
20260506191827 55 45 2.6 16.5 0.00 0.00 0.00 70 1012.3
20260506190826 55 45 2.6 16.5 0.00 0.00 0.00 69 1012.2
20260506185825 55 22 2.6 16.5 0.00 0.00 0.00 69 1012.0
20260506184825 56 45 2.6 16.5 0.00 0.00 0.00 68 1011.9
20260506183824 56 45 4.3 16.5 0.00 0.00 0.00 67 1011.8
20260506182823 56 68 3.5 16.5 0.00 0.00 0.00 66 1011.7
20260506181821 56 90 2.6 16.5 0.00 0.00 0.00 65 1011.6
20260506180821 57 22 2.6 16.5 0.00 0.00 0.00 64 1011.4
20260506175818 57 45 2.6 16.5 0.00 0.00 0.00 64 1011.4
20260506174816 57 45 2.6 16.5 0.00 0.00 0.00 63 1011.2
20260506173816 57 45 2.6 16.5 0.00 0.00 0.00 62 1011.0
20260506172814 58 0 1.7 16.5 0.00 0.00 0.00 62 1011.0
20260506171812 58 22 2.6 16.5 0.00 0.00 0.00 62 1010.9
20260506170811 58 135 1.7 16.5 0.00 0.00 0.00 61 1010.9
20260506165810 58 90 2.6 16.5 0.00 0.00 0.00 62 1010.8
20260506164810 58 68 3.5 16.5 0.00 0.00 0.00 62 1010.9
20260506163804 58 45 3.5 16.5 0.00 0.00 0.00 61 1010.9
20260506162803 58 22 4.3 16.5 0.00 0.00 0.00 61 1010.9
20260506161802 58 90 4.3 16.5 0.00 0.00 0.00 60 1010.8
20260506160802 58 112 4.3 16.5 0.00 0.00 0.00 59 1010.8
20260506155801 58 90 4.3 16.5 0.00 0.00 0.00 60 1010.9
20260506154759 58 45 4.3 16.5 0.00 0.00 0.00 60 1010.9
20260506153759 58 112 3.5 16.5 0.00 0.00 0.00 60 1010.8
20260506152758 58 45 3.5 16.5 0.00 0.00 0.00 60 1010.9
20260506151754 58 90 4.3 16.5 0.00 0.00 0.00 61 1010.9
20260506150753 58 90 4.3 16.5 0.00 0.00 0.00 59 1010.8
20260506145752 58 45 5.2 16.5 0.00 0.00 0.00 59 1010.7
20260506144751 58 90 6.1 16.5 0.00 0.00 0.00 60 1010.7
20260506143750 58 112 4.3 16.5 0.00 0.00 0.00 58 1010.8
20260506142749 58 90 6.1 16.5 0.00 0.00 0.00 58 1010.7
20260506141749 59 90 4.3 16.5 0.00 0.00 0.00 57 1010.8
20260506140748 60 45 4.3 16.5 0.00 0.00 0.00 55 1010.8
20260506135747 60 45 4.3 16.5 0.00 0.00 0.00 55 1010.7
20260506134746 60 68 5.2 16.5 0.00 0.00 0.00 55 1010.7
20260506133746 60 68 7.0 16.5 0.00 0.00 0.00 56 1010.6
20260506132744 60 68 7.0 16.5 0.00 0.00 0.00 56 1010.5
20260506131743 60 112 6.1 16.5 0.00 0.00 0.00 58 1010.4
20260506130743 60 68 6.1 16.5 0.00 0.00 0.00 57 1010.4
20260506125743 60 68 5.2 16.5 0.00 0.00 0.00 59 1010.3
20260506124742 60 112 5.2 16.5 0.00 0.00 0.00 60 1010.2
20260506123741 60 45 6.1 16.5 0.00 0.00 0.00 57 1010.3
20260506122741 61 68 6.1 16.5 0.00 0.00 0.00 58 1010.1
20260506121740 61 45 4.3 16.5 0.00 0.00 0.00 59 1010.2
20260506120740 60 0 5.2 16.5 0.00 0.00 0.00 62 1010.2
20260506115740 59 45 6.1 16.5 0.00 0.00 0.00 62 1010.2
20260506114739 60 68 7.0 16.5 0.00 0.00 0.00 62 1010.2
20260506113736 61 45 7.0 16.5 0.00 0.00 0.00 61 1010.3
20260506112735 60 22 7.0 16.5 0.00 0.00 0.00 62 1010.2
20260506111735 60 112 6.1 16.5 0.00 0.00 0.00 62 1010.2
20260506110734 60 68 6.1 15.6 0.00 0.00 0.00 62 1010.2
20260506105733 58 22 6.1 15.6 0.00 0.00 0.00 65 1010.2
20260506104732 59 22 6.1 15.6 0.00 0.00 0.00 67 1010.2
20260506103731 59 68 7.0 15.6 0.00 0.00 0.00 67 1010.1
20260506102730 58 45 7.0 15.6 0.00 0.00 0.00 69 1010.2
20260506101729 58 22 6.1 15.6 0.00 0.00 0.00 69 1010.1
20260506100729 58 338 6.1 15.6 0.00 0.00 0.00 69 1010.0
20260506095728 60 68 7.0 15.6 0.00 0.00 0.00 67 1010.0
20260506094728 59 68 7.0 15.6 0.00 0.00 0.00 66 1009.9
20260506093728 60 45 5.2 13.0 0.00 0.00 0.00 64 1009.8
20260506092727 60 45 4.3 13.0 0.00 0.00 0.00 66 1009.8
20260506091725 59 22 4.3 13.0 0.00 0.00 0.00 68 1009.7
20260506090724 59 0 5.2 13.0 0.00 0.00 0.00 69 1009.7
20260506085722 58 45 5.2 12.2 0.00 0.00 0.00 72 1009.7
20260506084721 57 22 5.2 12.2 0.00 0.00 0.00 77 1009.6
20260506083720 56 22 5.2 12.2 0.00 0.00 0.00 78 1009.6
20260506082719 56 68 4.3 12.2 0.00 0.00 0.00 79 1009.5
20260506081716 55 22 4.3 12.2 0.00 0.00 0.00 79 1009.5
20260506080715 55 0 4.3 12.2 0.00 0.00 0.00 80 1009.5
20260506072711 53 22 4.3 12.2 0.00 0.00 0.00 83 1009.5
20260506071710 52 0 4.3 12.2 0.00 0.00 0.00 83 1009.5
20260506070709 52 0 4.3 12.2 0.00 0.00 0.00 83 1009.4
20260506061703 51 338 4.3 11.3 0.00 0.00 0.00 85 1009.1
20260506060702 51 22 4.3 11.3 0.00 0.00 0.00 85 1009.1
20260506050656 50 22 2.6 10.4 0.00 0.00 0.00 87 1009.0
20260506044654 50 0 3.5 10.4 0.00 0.00 0.00 87 1009.1
20260506043653 50 22 2.6 10.4 0.00 0.00 0.00 87 1009.1
20260506042652 50 338 3.5 10.4 0.00 0.00 0.00 87 1009.1
20260506041650 50 22 3.5 10.4 0.00 0.00 0.00 86 1009.2
20260506040649 50 45 2.6 10.4 0.00 0.00 0.00 86 1009.2
20260506035649 50 68 3.5 10.4 0.00 0.00 0.00 85 1009.3
20260506034647 50 22 3.5 10.4 0.00 0.00 0.00 85 1009.3
20260506033646 50 45 3.5 10.4 0.00 0.00 0.00 84 1009.3
20260506032645 50 45 3.5 10.4 0.00 0.00 0.00 84 1009.4
20260506031644 50 22 3.5 10.4 0.00 0.00 0.00 84 1009.4
20260506030643 50 68 3.5 10.4 0.00 0.00 0.00 84 1009.4
20260506025642 50 22 2.6 10.4 0.00 0.00 0.00 84 1009.5
20260506024642 50 22 3.5 10.4 0.00 0.00 0.00 84 1009.5
20260506023640 50 45 2.6 10.4 0.00 0.00 0.00 84 1009.6
20260506022640 50 0 3.5 10.4 0.00 0.00 0.00 84 1009.6
20260506021639 50 0 3.5 10.4 0.00 0.00 0.00 84 1009.6
20260506020638 50 338 3.5 10.4 0.00 0.00 0.00 84 1009.6
20260506015636 49 315 3.5 9.6 0.00 0.00 0.00 84 1009.6
20260506014634 49 22 3.5 9.6 0.00 0.00 0.00 84 1009.6
20260506013633 49 0 3.5 9.6 0.00 0.00 0.00 84 1009.7
20260506012633 50 22 2.6 9.6 0.00 0.00 0.00 84 1009.7
20260506011630 50 22 3.5 9.6 0.00 0.00 0.00 83 1009.7
20260506010629 50 315 3.5 9.6 0.00 0.00 0.00 84 1009.8
20260506005629 50 45 3.5 9.6 0.00 0.00 0.00 83 1009.9
20260506004627 50 338 3.5 9.6 0.00 0.00 0.00 83 1010.0
20260506003627 50 338 3.5 9.6 0.00 0.00 0.00 83 1010.0
20260506002626 50 338 3.5 9.6 0.00 0.00 0.00 83 1010.2
20260506001624 50 22 2.6 9.6 0.00 0.00 0.00 82 1010.4
20260506000624 50 0 3.5 9.6 0.00 0.00 0.00 82 1010.3
20260505235623 50 22 3.5 9.6 0.00 0.00 0.00 82 1010.3
20260505234622 50 45 2.6 9.6 0.00 0.00 0.00 82 1010.4
20260505233620 50 315 2.6 9.6 0.00 0.00 0.00 82 1010.4
20260505232620 50 0 2.6 9.6 0.00 0.00 0.00 82 1010.5
20260505231619 50 0 2.6 9.6 0.00 0.00 0.00 81 1010.7
20260505230619 50 22 2.6 8.7 0.00 0.00 0.00 81 1010.8
20260505225617 50 0 2.6 8.7 0.00 0.00 0.00 80 1010.8
20260505224617 50 338 2.6 8.7 0.00 0.00 0.00 80 1010.8
20260505223615 50 0 2.6 8.7 0.00 0.00 0.00 80 1011.0
20260505222614 50 22 2.6 8.7 0.00 0.00 0.00 79 1010.9
20260505221613 51 338 3.5 8.7 0.00 0.00 0.00 79 1011.0
20260505220613 51 315 4.3 6.1 0.00 0.00 0.00 79 1010.8
20260505215611 51 90 4.3 16.5 0.00 0.00 0.00 79 1010.9
20260505214610 51 0 3.5 16.5 0.00 0.00 0.00 78 1011.0
20260505213610 51 0 3.5 16.5 0.00 0.00 0.00 78 1011.2
20260505212609 51 0 4.3 16.5 0.00 0.00 0.00 78 1011.2
20260505211607 51 45 4.3 16.5 0.00 0.00 0.00 78 1011.2
20260505210607 51 0 5.2 16.5 0.00 0.00 0.00 78 1011.2
20260505205605 52 0 5.2 16.5 0.00 0.00 0.00 78 1011.3
20260505204604 52 22 3.5 16.5 0.00 0.00 0.00 79 1011.4